Location: Sungai Igah
(2.7333°N, 114.2500°E)
Time: 18:30:46
(UTC+00:00)

Cosmos 2285 Rocket - Pass Details

Date: 14 June 2021
Orbit: 971 x 998 km, 74.0° (Epoch: 24 July)

Event Time Altitude Azimuth Distance (km) Brightness Sun altitude
Exits shadow 12:34:36 58° 188° (S) 1,153 4.2 -28.6°
Maximum altitude 12:36:02 88° 101° (E) 999 3.9 -28.9°
Drops below altitude 10° 12:42:27 10° 13° (NNE) 2,756 6.5 -30.3°
Sets 12:45:00 0° 13° (NNE) 3,704 7.2 -30.8°
